Theta_e
322 315 318 315 301 300 296 299 300 299 298 303 308 305 301 300 298 299 305 307 307 308 312 313 320 322 322 323 324 324 325 325 326 326 324 325 325 324 326 326 327 327 329 330 329 327 327 326 326
319 318 314 309 297 294 295 299 297 297 302 308 306 305 302 296 302 303 303 307 307 308 311 312 318 321 321 321 322 323 323 324 324 324 324 324 325 324 324 325 325 326 328 328 328 328 328 327 326
318 317 303 302 295 292 295 297 298 302 304 306 302 303 300 296 302 301 303 305 306 307 311 312 317 320 320 321 322 321 322 322 322 322 323 323 322 322 321 324 325 326 328 329 329 329 327 326 326
309 308 303 296 294 297 298 296 300 300 303 306 303 298 300 302 301 302 305 305 305 306 309 313 316 318 320 320 320 320 320 320 320 320 320 321 321 321 321 324 323 324 325 327 328 327 327 326 329
308 303 296 293 294 297 299 300 301 300 301 301 303 297 296 300 303 304 304 305 303 304 307 310 315 317 318 318 319 318 318 318 319 319 319 319 319 320 320 321 322 324 324 326 326 327 328 329 329
302 302 293 291 295 299 301 303 303 301 301 300 299 297 296 301 301 302 303 302 304 305 308 309 314 315 317 316 316 316 317 317 317 317 318 317 316 318 317 320 320 321 322 324 324 325 329 328 327
300 298 294 293 297 298 302 304 301 301 300 299 301 294 295 298 301 302 302 302 304 305 306 306 308 312 316 315 314 314 315 314 313 314 314 312 312 313 314 316 318 320 322 323 323 325 325 324 323
301 298 294 295 296 297 301 300 302 300 297 300 299 292 291 297 301 301 302 302 303 304 305 305 306 307 307 308 312 311 312 309 308 308 309 308 307 308 308 309 313 317 319 322 321 321 321 319 317
303 295 292 292 295 298 301 298 299 299 298 296 297 295 297 301 301 299 299 299 301 304 303 304 305 306 306 308 309 308 309 305 303 302 304 301 299 300 300 305 308 311 314 320 320 317 315 311 310
298 293 292 294 293 298 302 299 298 296 295 294 294 297 299 299 298 297 296 297 299 300 302 303 304 304 304 307 302 300 301 298 296 295 295 297 296 297 298 300 304 305 308 315 318 315 309 305 300
298 293 295 295 297 299 297 296 298 296 293 295 294 295 297 297 297 297 297 298 299 300 302 303 303 302 302 301 299 296 296 294 293 293 294 294 294 293 294 294 295 295 301 304 312 303 299 298 297
295 295 296 297 296 297 295 296 293 293 293 297 298 297 296 296 296 296 297 298 300 301 302 302 302 301 299 297 295 294 294 292 292 292 293 292 292 291 292 293 292 293 296 301 309 306 299 297 297
295 293 295 295 295 294 296 293 292 292 294 297 298 298 296 296 296 296 298 299 300 301 301 300 299 298 297 295 293 292 291 291 291 291 292 292 291 290 292 291 291 292 294 297 306 306 302 298 297
293 294 293 294 294 294 293 291 292 291 293 295 297 295 295 296 295 296 297 298 300 301 300 299 298 297 296 293 292 290 290 290 290 290 291 292 291 290 291 291 291 292 293 294 299 307 305 300 297
294 291 290 291 292 292 292 289 290 291 293 293 294 294 296 296 296 296 297 298 300 301 300 298 297 295 293 292 291 290 290 290 289 290 290 291 292 291 290 290 290 291 292 293 295 295 301 301 296
291 290 286 289 292 291 290 286 290 291 291 290 291 291 294 294 296 296 297 299 300 300 299 298 297 293 291 290 290 290 289 288 288 288 289 290 291 291 290 290 290 291 292 292 292 292 292 293 294
287 282 285 285 292 289 288 286 289 291 289 289 289 290 292 293 293 295 297 299 299 300 298 295 294 292 291 290 290 289 289 287 287 287 288 289 291 291 290 289 290 290 290 290 290 290 290 290 291
282 282 284 284 287 287 285 285 288 289 288 288 288 289 291 292 293 295 297 298 299 299 298 295 293 292 291 290 289 288 287 287 287 286 288 289 290 290 289 289 289 290 289 289 289 289 289 289 289
287 285 282 283 286 285 284 284 286 288 287 286 288 288 290 292 294 296 297 297 298 298 297 295 293 293 293 291 288 287 285 285 285 287 288 288 289 289 288 288 288 289 287 287 288 289 289 288 289
285 283 281 284 286 284 283 284 286 287 287 288 289 289 290 291 293 296 296 296 297 297 298 296 295 294 294 291 288 287 285 285 286 286 287 288 288 289 289 288 287 287 287 287 286 286 286 288 288
285 283 282 283 285 284 282 281 284 287 288 289 290 291 291 291 294 295 296 294 295 296 296 297 296 295 291 290 289 288 287 287 285 285 285 286 287 288 288 287 287 287 287 286 285 285 285 284 287
284 288 287 286 281 278 284 275 282 286 288 289 290 291 290 290 293 296 295 294 294 294 295 297 296 292 291 290 288 287 286 283 283 284 284 285 286 287 288 287 286 286 287 285 286 286 285 284 283
286 288 287 285 282 279 279 276 280 287 286 288 289 290 289 290 292 294 295 296 295 294 294 293 293 293 293 291 289 286 284 284 284 284 284 284 285 286 287 286 286 286 286 285 285 284 284 285 284
289 288 287 284 282 275 279 278 278 285 288 288 288 288 290 290 291 294 295 296 294 293 292 291 290 290 290 288 287 285 284 284 283 283 282 283 283 284 285 286 285 285 285 285 285 285 284 284 284
288 283 276 273 273 275 281 278 282 288 288 289 289 289 289 290 291 293 293 293 292 291 291 290 290 288 287 287 287 286 285 285 283 283 282 282 282 282 283 284 284 284 285 285 285 284 283 283 283
284 285 276 271 274 276 280 278 283 287 289 290 291 290 291 290 292 293 293 293 292 292 291 290 289 288 287 287 286 286 286 285 284 284 283 282 282 282 283 283 283 284 285 285 285 284 284 283 283
284 281 287 281 272 278 280 282 287 287 289 290 290 291 290 290 291 292 294 293 292 292 291 291 289 288 287 287 286 286 285 285 283 283 283 282 282 284 283 283 282 283 284 284 284 283 283 283 283
284 287 280 279 272 272 278 280 283 283 286 289 289 289 290 291 291 292 293 293 293 293 292 290 289 288 288 287 286 286 285 284 284 283 282 282 282 283 282 282 282 282 283 283 283 283 283 282 283
282 280 282 283 282 278 276 280 284 286 288 288 289 291 290 291 291 292 292 294 293 292 291 290 289 288 287 287 286 285 284 284 284 282 282 282 282 282 282 282 281 282 281 282 282 282 282 282 282
284 284 286 280 279 281 282 282 287 287 289 290 290 291 290 291 292 292 292 293 292 292 291 289 288 287 287 287 286 285 284 283 282 281 281 282 282 282 281 281 281 281 281 281 281 281 281 281 281
Wind_Speed
8 8 2 5 8 6 3 7 2 3 3 1 0 5 9 4 3 3 2 6 6 6 8 7 11 11 13 14 14 14 15 16 16 17 17 17 17 17 17 17 17 17 17 18 18 18 19 18 18
5 5 4 3 7 5 4 5 3 3 3 7 5 4 6 4 4 6 3 3 7 6 6 5 10 11 13 13 14 15 15 16 16 17 17 17 19 18 18 19 18 18 18 18 19 18 19 18 19
2 4 4 5 5 5 5 4 8 4 6 2 5 6 4 3 5 4 3 6 7 6 6 5 10 12 13 13 14 14 15 17 17 18 18 18 19 20 18 18 18 18 19 19 19 20 20 20 19
3 5 4 6 6 0 5 7 6 5 2 6 8 7 5 2 2 5 5 6 7 5 6 7 9 11 14 14 15 15 17 17 17 17 17 19 19 20 19 19 19 19 19 20 21 21 22 19 20
3 3 3 5 3 4 5 10 8 5 5 1 3 5 4 3 8 7 6 5 6 5 6 5 10 11 14 15 15 16 15 16 16 16 17 16 17 19 19 18 19 19 20 20 21 21 21 23 23
4 3 4 4 4 4 5 7 8 5 6 3 5 6 3 7 7 6 6 6 6 6 6 5 6 8 12 14 14 14 15 16 15 17 18 14 17 18 19 18 19 19 21 21 22 22 24 25 26
3 3 2 6 7 5 5 7 3 7 5 1 4 5 4 5 7 7 7 7 7 7 6 5 6 7 7 10 12 12 14 17 17 18 19 18 18 19 19 18 20 20 21 21 23 23 25 26 25
4 3 1 2 5 4 3 3 4 7 2 1 2 5 6 6 9 7 6 6 7 6 6 6 5 5 4 4 7 5 15 18 18 18 19 18 17 18 19 18 20 21 21 21 24 23 22 24 26
3 5 4 5 5 5 5 3 3 2 6 4 4 3 5 13 9 5 3 4 5 5 6 6 6 6 6 6 7 9 15 17 17 15 17 10 7 7 10 19 21 22 19 21 22 23 22 22 23
4 4 2 5 2 6 7 4 6 4 4 3 5 6 7 8 6 7 5 5 5 5 5 5 6 6 6 5 6 6 8 7 7 8 8 6 7 7 10 12 20 19 19 18 20 21 22 16 10
1 4 5 4 4 4 4 4 4 7 4 7 9 12 9 6 7 6 6 6 7 5 4 5 5 5 6 5 4 3 3 4 4 7 7 6 5 4 6 5 6 6 11 5 9 11 9 12 10
6 6 4 1 5 4 3 4 2 2 2 4 10 14 9 8 8 8 7 7 7 6 5 5 5 6 7 4 4 4 4 4 5 5 7 5 4 5 5 5 6 5 5 6 6 5 9 10 11
4 3 5 3 6 5 2 1 3 3 6 8 12 10 10 9 7 6 8 7 7 7 5 4 6 6 6 6 4 4 4 4 5 5 6 5 5 5 5 5 5 5 5 5 3 6 6 7 9
4 6 6 3 3 3 2 1 0 3 6 10 10 9 9 9 9 7 7 7 7 7 6 5 6 7 7 6 6 4 4 5 5 5 6 7 5 4 5 6 6 6 5 5 5 3 6 4 8
8 5 3 3 3 2 2 4 6 5 6 8 8 8 9 9 9 9 8 8 8 6 7 6 6 7 7 7 6 5 5 5 5 5 6 7 7 6 6 5 6 6 6 7 7 7 5 5 7
3 5 2 2 5 1 2 8 1 5 9 7 8 7 8 7 10 8 8 8 8 7 7 6 6 7 7 7 5 4 5 5 5 5 5 8 9 8 7 6 7 6 6 6 4 5 4 4 5
1 3 5 2 5 2 3 6 4 6 6 7 8 8 8 7 7 7 8 9 8 8 7 7 7 7 7 7 5 6 7 5 4 5 5 8 9 9 7 7 6 7 6 6 4 6 4 4 4
6 4 4 6 5 2 4 9 8 7 7 10 8 8 9 9 10 10 10 9 8 8 7 7 6 7 7 5 5 4 5 4 5 5 6 8 7 9 7 6 7 7 7 7 6 6 5 4 2
5 5 4 1 2 4 7 8 11 7 6 7 8 9 9 11 8 11 11 10 9 8 7 7 7 6 4 2 3 4 4 3 4 5 7 8 8 8 8 6 8 7 8 7 8 4 9 10 6
1 3 1 1 2 2 3 10 12 6 8 10 11 9 9 7 9 11 10 7 8 8 8 7 6 5 3 4 3 4 4 4 4 4 6 7 8 9 9 8 7 7 6 10 9 7 3 6 8
3 3 4 2 1 1 3 8 2 3 5 6 6 5 3 10 14 13 13 9 9 8 8 7 7 7 6 7 5 4 4 2 3 4 4 6 7 8 8 8 7 7 7 7 8 8 8 3 8
6 3 6 6 3 3 3 5 5 3 4 4 7 6 6 7 8 11 10 9 9 7 7 7 7 8 6 7 5 3 3 3 2 3 3 4 6 7 8 8 7 7 6 8 7 7 6 4 4
4 5 7 4 4 5 2 4 8 5 3 5 5 5 5 5 8 12 11 10 7 8 7 7 8 7 6 5 6 5 6 5 3 4 5 5 5 6 7 8 7 7 6 6 7 7 8 7 8
6 7 9 6 4 3 5 7 7 5 7 5 3 4 4 3 5 8 7 8 7 7 8 7 8 5 6 6 7 8 9 7 5 4 4 3 3 4 6 7 6 6 5 6 6 7 7 5 6
4 7 4 5 3 7 4 4 10 3 4 7 7 5 4 4 6 8 9 9 9 8 8 7 8 6 6 7 7 8 8 8 7 6 4 5 3 3 5 5 6 4 5 5 5 7 6 5 4
6 5 8 9 5 4 4 6 6 3 5 6 6 7 5 4 5 7 8 9 10 9 8 9 8 6 7 7 7 6 7 4 4 5 5 4 3 3 4 5 5 6 6 5 5 4 4 4 4
6 4 4 7 3 4 4 4 1 3 4 5 7 6 6 6 6 7 7 8 8 8 8 9 8 7 7 7 6 6 6 7 6 7 6 4 5 4 5 5 6 6 6 5 6 4 5 4 4
2 2 3 3 4 3 4 4 6 8 8 7 7 7 6 6 6 6 7 8 7 7 7 8 8 8 7 7 6 6 6 6 6 6 6 6 5 5 6 6 6 6 6 5 6 4 4 5 4
2 2 1 4 5 6 3 7 2 12 12 12 8 7 7 8 7 7 6 7 8 7 7 7 7 8 7 6 5 7 6 6 6 6 6 6 6 6 6 6 6 6 6 5 5 6 4 6 6
1 5 6 6 5 3 3 6 7 9 10 8 7 6 5 5 7 7 7 7 8 9 8 9 7 8 7 6 6 6 6 6 6 6 6 6 6 5 6 5 6 6 6 5 6 6 3 6 6
Wind_Direction
322 301 128 39 63 86 356 280 154 162 56 269 351 61 115 72 34 112 189 77 78 64 70 39 18 21 28 30 27 31 32 32 29 31 33 30 34 32 29 26 25 22 20 24 23 22 20 13 8
323 314 46 103 93 113 221 244 101 334 191 149 97 91 53 81 91 109 79 94 91 76 82 40 24 29 32 33 35 34 34 33 32 35 35 34 34 35 30 27 28 27 26 28 28 24 20 16 12
279 204 80 103 107 158 170 169 127 168 201 139 75 48 73 80 111 114 161 77 83 77 93 51 36 35 36 39 38 38 37 35 31 31 34 34 37 34 33 28 29 27 29 32 30 28 25 21 17
344 7 13 92 137 321 130 157 139 139 12 17 112 73 70 56 83 130 89 72 81 71 104 65 51 44 41 38 41 40 37 33 33 35 38 37 36 38 35 32 36 33 34 29 31 31 34 30 17
32 62 37 80 76 103 94 151 164 173 136 189 110 150 97 50 110 113 98 78 98 79 106 81 55 54 48 43 42 42 40 37 35 34 37 34 35 40 35 34 34 30 37 34 35 32 29 26 34
10 86 42 109 110 112 131 179 139 124 136 138 96 109 135 147 122 141 120 94 81 91 72 73 60 63 61 52 50 48 41 38 35 35 33 46 35 38 36 33 37 38 36 35 39 36 36 47 49
107 71 156 151 135 109 149 157 100 138 119 124 149 79 152 172 162 147 142 115 92 75 77 60 53 61 84 62 55 44 42 39 34 33 35 42 36 37 36 30 37 36 35 36 39 36 45 48 49
105 91 303 142 139 120 137 87 126 94 154 147 72 159 190 189 160 144 142 125 103 86 73 55 49 39 49 60 64 26 48 44 36 33 30 36 31 35 33 32 36 37 36 38 46 42 48 50 51
48 48 358 352 123 152 148 103 21 154 112 70 33 93 127 131 128 149 134 110 89 66 61 55 43 30 38 62 53 45 52 50 39 28 25 27 22 18 24 34 37 38 36 45 50 47 47 50 49
82 86 42 324 81 146 157 129 151 117 119 72 64 62 114 123 155 166 150 119 87 74 58 62 53 42 47 58 52 44 47 46 39 25 19 18 22 26 37 30 32 24 23 41 49 50 47 44 40
12 128 172 356 6 119 113 119 137 129 219 179 184 168 159 154 178 153 129 122 121 115 70 68 71 55 60 62 60 43 46 46 26 24 24 18 21 20 32 25 20 14 8 25 52 56 50 51 52
97 42 101 116 356 76 98 120 130 169 157 141 160 157 149 163 182 157 134 133 121 108 98 74 75 67 57 62 56 55 54 49 42 25 21 18 22 27 30 29 13 13 355 13 51 68 67 63 62
106 129 64 99 59 60 29 97 170 223 152 103 116 136 156 167 168 129 131 126 128 114 111 95 86 77 70 67 56 52 50 52 45 31 25 23 26 34 32 22 14 10 2 12 36 80 78 72 69
117 105 130 143 111 72 99 162 179 300 146 115 130 160 170 171 154 129 128 137 132 129 126 107 93 91 85 75 64 61 58 47 41 30 26 24 28 34 35 29 20 16 15 2 18 41 96 86 80
144 94 111 165 185 107 89 273 231 155 143 147 159 169 177 178 154 153 159 150 146 142 129 118 103 91 83 79 67 58 47 53 43 31 19 26 33 37 37 31 24 13 13 15 26 21 38 66 84
100 86 102 220 142 209 107 264 308 178 145 177 185 191 181 171 166 166 148 142 134 138 134 120 103 98 90 87 77 65 55 48 44 31 23 28 34 36 38 37 30 12 22 20 32 24 20 44 76
352 196 200 241 198 131 155 261 203 187 162 206 206 197 187 167 164 143 149 139 147 140 140 127 116 113 111 105 93 78 68 51 41 35 33 24 35 38 45 35 24 25 29 20 15 36 36 43 45
189 208 222 183 212 122 174 256 267 236 189 204 210 210 192 180 185 159 149 140 138 143 140 135 127 126 125 111 97 78 68 53 37 33 40 32 32 38 42 37 32 35 36 27 13 37 27 35 8
157 185 134 151 252 173 223 256 258 248 198 215 220 197 203 198 181 159 148 142 136 140 140 142 136 156 133 125 109 79 72 53 36 39 37 37 33 37 40 41 34 30 39 28 16 2 43 31 11
38 144 131 94 181 164 2 276 255 222 212 196 202 216 205 169 154 159 145 139 142 145 152 150 155 157 117 106 104 113 113 86 89 52 41 36 39 38 52 47 39 35 44 40 26 21 41 47 31
189 176 170 150 149 268 333 302 278 45 89 106 134 158 69 176 165 162 158 153 146 155 162 159 158 122 109 104 99 88 91 75 49 27 36 31 39 45 49 50 48 42 45 49 36 29 41 64 47
174 192 126 129 94 230 102 271 310 154 123 110 108 86 78 58 154 159 154 155 155 162 151 135 134 125 126 126 123 138 132 110 70 89 65 43 38 48 49 52 49 48 53 50 48 37 37 46 62
175 126 136 127 103 67 281 71 269 119 171 165 105 91 57 46 151 161 161 160 153 145 138 127 114 115 128 121 129 110 95 103 117 98 84 57 38 47 51 53 47 49 55 54 57 46 39 47 71
146 74 40 44 77 25 230 144 278 202 191 140 141 111 94 71 93 140 139 131 125 127 123 124 118 113 102 105 115 117 123 127 118 108 100 83 56 45 49 54 56 52 50 53 55 56 50 50 64
89 87 26 5 0 219 340 97 246 186 127 155 156 132 113 111 100 137 140 134 140 140 136 129 130 137 131 118 121 130 135 135 138 141 128 111 82 53 58 59 57 56 58 53 62 64 60 46 68
178 162 155 194 195 235 335 221 261 109 110 114 131 145 145 142 140 150 148 147 150 150 147 138 142 142 135 123 120 120 126 128 126 126 118 119 108 104 91 80 70 66 64 63 57 64 73 57 58
200 185 169 106 13 73 212 266 284 128 135 142 149 153 176 180 174 167 157 156 157 156 157 150 146 149 146 139 132 130 128 126 129 120 118 125 124 117 102 95 86 77 75 71 74 75 71 63 56
147 180 93 350 130 233 262 237 222 195 191 180 159 163 177 179 179 180 169 159 164 159 149 146 151 156 152 144 141 138 137 133 132 124 130 129 125 115 114 99 86 79 75 74 80 68 47 69 53
148 176 207 136 146 168 175 255 155 206 179 177 179 172 170 183 187 186 182 168 163 156 152 150 151 146 149 147 142 138 141 137 130 128 137 139 134 134 126 120 109 100 92 72 76 76 52 72 62
297 202 173 156 197 206 156 265 322 191 156 153 167 164 165 163 174 177 175 162 159 164 159 158 154 150 158 151 143 147 144 138 136 144 149 142 139 135 131 121 111 104 102 95 89 83 64 80 76